Weather History for KPRB - July, 2013

Change the Weather History Date:

Tuesday, July 16, 2013

  Actual Average Record
Temperature  
Mean Temperature 69 °F 74 °F  
Max Temperature 86 °F 93 °F 110 °F (1960)
Min Temperature 52 °F 54 °F 44 °F (1989)
Degree Days  
Heating Degree Days 0 0  
Month to date heating degree days 0 0  
Since 1 June heating degree days 5 27  
Since 1 July heating degree days 0 0  
Cooling Degree Days 4 9  
Month to date cooling degree days 171 130  
Year to date cooling degree days 526 341  
Since 1 June cooling degree days 396 273  
Growing Degree Days 18 (Base 50)    
Moisture  
Dew Point 48 °F    
Average Humidity 55    
Maximum Humidity 89    
Minimum Humidity 20    
Precipitation  
Precipitation 0.00 in 0.00 in 0.00 in (2015)
Month to date precipitation T 0.00  
Year to date precipitation 1.46 8.79  
Since 1 July precipitation T 0.00  
Sea Level Pressure  
Sea Level Pressure 29.93 in    
Wind  
Wind Speed 8 mph (WSW)    
Max Wind Speed 21 mph    
Max Gust Speed 25 mph    
Visibility 10 miles    
Events      
T = Trace of Precipitation, MM = Missing Value Source: NWS Daily Summary

Daily Weather History Graph

Daily Weather History Graph

Search for Another Location

Airport or City:

Trip Planner

Search our weather history database for the weather conditions in past years. The results will help you decide how hot, cold, wet, or windy it might be!

Date:

Astronomy

Jul. 16, 2013 Rise Set
Actual Time 5:59 AM PDT 8:17 PM PDT
Civil Twilight 5:29 AM PDT 8:46 PM PDT
Nautical Twilight 4:53 AM PDT 9:22 PM PDT
Astronomical Twilight 4:14 AM PDT 10:01 PM PDT
Moon 2:09 PM PDT (7/16) 12:25 AM PDT (7/16)
Length of Visible Light 15h 17m
Length of Day
14h 18m
First Quarter, 57% of the Moon is Illuminated
Jul 16
First Quarter
Jul 22
Full
Jul 29
Last Quarter
Aug 6
New
Aug 14
First Quarter

Hourly Weather History & Observations

Time (PDT) Temp. Dew Point Humidity Pressure Visibility Wind Dir Wind Speed Gust Speed Precip Events Conditions
12:53 AM 54.0 °F 50.0 °F 86% 29.88 in 10.0 mi WSW 4.6 mph - N/A   Clear
1:53 AM 53.1 °F 48.9 °F 86% 29.88 in 10.0 mi WSW 3.5 mph - N/A   Clear
2:12 AM 53.6 °F 48.2 °F 82% 29.91 in 10.0 mi Calm Calm - N/A   Mostly Cloudy
2:42 AM 53.6 °F 50.0 °F 88% 29.91 in 10.0 mi Calm Calm - N/A   Overcast
2:53 AM 54.0 °F 50.0 °F 86% 29.89 in 10.0 mi Calm Calm - N/A   Overcast
3:53 AM 54.0 °F 50.0 °F 86% 29.89 in 10.0 mi WSW 3.5 mph - N/A   Overcast
4:53 AM 54.0 °F 50.0 °F 86% 29.90 in 10.0 mi SW 3.5 mph - N/A   Overcast
5:53 AM 54.0 °F 50.0 °F 86% 29.93 in 10.0 mi NW 3.5 mph - N/A   Overcast
6:53 AM 53.1 °F 48.9 °F 86% 29.94 in 10.0 mi Calm Calm - N/A   Overcast
7:53 AM 54.0 °F 48.9 °F 83% 29.96 in 10.0 mi NW 4.6 mph - N/A   Overcast
8:53 AM 55.9 °F 50.0 °F 80% 29.97 in 10.0 mi NW 4.6 mph - N/A   Overcast
9:53 AM 59.0 °F 50.0 °F 72% 29.97 in 10.0 mi WSW 3.5 mph - N/A   Mostly Cloudy
10:08 AM 60.8 °F 48.2 °F 63% 29.98 in 10.0 mi Calm Calm - N/A   Scattered Clouds
10:53 AM 64.0 °F 48.9 °F 58% 29.96 in 10.0 mi Variable 3.5 mph - N/A   Clear
11:53 AM 71.1 °F 46.9 °F 42% 29.95 in 10.0 mi Calm Calm - N/A   Clear
12:53 PM 78.1 °F 46.0 °F 32% 29.93 in 10.0 mi Variable 4.6 mph - N/A   Clear
1:53 PM 82.9 °F 46.0 °F 27% 29.92 in 10.0 mi SSW 6.9 mph - N/A   Clear
2:53 PM 84.9 °F 39.9 °F 20% 29.90 in 10.0 mi SSW 13.8 mph - N/A   Clear
3:53 PM 84.0 °F 41.0 °F 22% 29.89 in 10.0 mi SSW 18.4 mph 21.9 mph N/A   Clear
4:53 PM 82.0 °F 45.0 °F 27% 29.90 in 10.0 mi SSW 18.4 mph 23.0 mph N/A   Clear
5:53 PM 78.1 °F 45.0 °F 31% 29.88 in 10.0 mi SSW 19.6 mph - N/A   Clear
6:53 PM 75.0 °F 46.0 °F 36% 29.89 in 10.0 mi SSW 18.4 mph - N/A   Clear
7:53 PM 69.1 °F 48.0 °F 47% 29.92 in 10.0 mi SSW 13.8 mph - N/A   Clear
8:53 PM 66.9 °F 48.9 °F 52% 29.95 in 10.0 mi West 10.4 mph - N/A   Clear
9:53 PM 64.0 °F 51.1 °F 63% 29.98 in 10.0 mi West 11.5 mph - N/A   Clear
10:53 PM 61.0 °F 51.1 °F 70% 30.00 in 10.0 mi West 9.2 mph - N/A   Clear
11:53 PM 59.0 °F 51.1 °F 75% 30.01 in 10.0 mi WNW 8.1 mph - N/A   Clear